This demonstration page uses our WeatherBlox Daily Observations layout. Learn more.

38.89511, -77.03637

Hourly Observations for September 3, 2018

Temp ( °F °C ) Dew Point ( °F °C ) Humidity (%) Winds ( mph kmh ) Pressure ( in mb ) Visibility ( mi km ) Precip ( " mm )
12:52 am 00:52 Clear 80 26.7 75 23.9 85 85 SSW 5 7 30.23 1024 10 16.0934 0 0
1:52 am 01:52 Clear 80 26.7 75 23.9 85 85 S 8 13 30.23 1024 10 16.0934 0 0
2:52 am 02:52 Clear 79 26.1 75 23.9 88 88 SSW 6 9 30.24 1024 10 16.0934 0 0
3:52 am 03:52 Mostly Clear 79 26.1 74 23.3 85 85 SSW 5 7 30.24 1024 10 16.0934 0 0
4:52 am 04:52 Mostly Clear 78 25.6 75 23.9 90 90 S 5 7 30.24 1024 10 16.0934 0 0
5:52 am 05:52 Clear 78 25.6 74 23.3 87 87 SSW 3 6 30.25 1025 10 16.0934 0 0
6:52 am 06:52 Mostly Sunny 78 25.6 74 23.3 87 87 SSE 5 7 30.27 1025 10 16.0934 0 0
6:54 am 06:54 Partly Cloudy 78 25.6 74 23.3 87 87 SE 3 6 30.27 1025 10 16.0934 0 0
7:52 am 07:52 Cloudy 79 26.1 76 24.4 90 90 S 3 6 30.28 1025 10 16.0934 0 0
7:58 am 07:58 Mostly Cloudy 79 26.1 75 23.9 88 88 S 3 6 30.27 1025 10 16.0934 0 0
8:52 am 08:52 Partly Cloudy 80 26.7 75 23.9 85 85 S 5 7 30.28 1025 10 16.0934 0 0
9:52 am 09:52 Mostly Sunny 83 28.3 76 24.4 79 79 SSE 6 9 30.28 1026 10 16.0934 0 0
10:52 am 10:52 Mostly Sunny 86 30 75 23.9 70 70 S 6 9 30.29 1026 10 16.0934 0 0
11:52 am 11:52 Partly Cloudy 89 31.7 76 24.4 65 65 SSE 6 9 30.27 1025 10 16.0934 0 0
12:52 pm 12:52 Mostly Cloudy 91 32.8 75 23.9 59 59 SSE 8 13 30.26 1025 10 16.0934 0 0
1:52 pm 13:52 Mostly Cloudy 91 32.8 74 23.3 57 57 S 10 17 30.24 1024 10 16.0934 0 0
2:52 pm 14:52 Mostly Cloudy 92 33.3 76 24.4 60 60 S 10 17 30.22 1023 10 16.0934 0 0
3:52 pm 15:52 Mostly Cloudy 92 33.3 73 22.8 54 54 S 10 17 30.2 1023 10 16.0934 0 0
4:52 pm 16:52 Partly Cloudy 91 32.8 74 23.3 57 57 S 13 20 30.19 1023 10 16.0934 0 0
5:52 pm 17:52 Partly Cloudy 91 32.8 74 23.3 57 57 S 7 11 30.19 1022 10 16.0934 0 0
6:52 pm 18:52 Mostly Cloudy 89 31.7 75 23.9 63 63 S 7 11 30.2 1023 10 16.0934 0 0
7:52 pm 19:52 Mostly Cloudy 87 30.6 76 24.4 70 70 S 5 7 30.2 1023 10 16.0934 0 0
8:52 pm 20:52 Partly Cloudy 86 30 76 24.4 72 72 S 3 6 30.23 1024 10 16.0934 0 0
9:52 pm 21:52 Partly Cloudy 85 29.4 77 25 77 77 S 5 7 30.24 1024 10 16.0934 0 0
10:52 pm 22:52 Mostly Cloudy 84 28.9 78 25.6 82 82 S 9 15 30.24 1024 10 16.0934 0 0
11:52 pm 23:52 Mostly Cloudy 83 28.3 78 25.6 85 85 S 5 7 30.25 1024 10 16.0934 0 0

Powered by AerisWeather